Flag for United Kingdom Weather past 2 weeks in Norwich, England, United Kingdom

Now
48 °F

Passing clouds.


Feels Like: 46 °F
Forecast: 53 / 59 °F
Wind: 6 mph from Southwest

Location: Norwich Weather Centre

Current Time: Sep 3, 2015 at 6:25:58 AM

Latest Report: Sep 3, 2015 at 5:50 AM


Visibility: N/A

Pressure: 29.92 "Hg

Humidity: 94%

Dew point: 46 °F

Location of NorwichLocation

Historic Weather in Norwich — Graph

°F

Norwich temperature yesterday

Maximum temperature yesterday: 61 °F (at 12:50 PM)
Minimum temperature yesterday: 46 °F (at 2:50 AM)
Average temperature yesterday: 54 °F

Past Weeks' High & Low Weather Summary

 TemperatureHumidityPressure
High82 °F (Aug 22, 12:20 PM)100% (Aug 22, 6:20 AM)30.15 "Hg (Aug 22, 6:20 AM)
Low46 °F (Sep 2, 2:50 AM)42% (Aug 22, 1:20 PM)29.45 "Hg (Aug 24, 3:50 PM)
Average62 °F81%29.90 "Hg
* Reported Aug 19 5:50 AM — Sep 3 4:20 AM, Norwich, Weather by CustomWeather, © 2015

Note: Actual official high and low records may vary slightly from our data, if they occured in-between our weather recording intervals... More about our weather records

Advertising

Norwich weather history for previous 24 hours

 ConditionsComfort  
Time TempWeatherWind HumidityBarometerVisibility
4:20 AM
Thu, Sep 3
50 °FPassing clouds.6 mph94%29.95 "Hg4 mi
3:50 AM52 °FPassing clouds.6 mph94%29.95 "Hg4 mi
3:20 AM50 °FFog.5 mph100%29.95 "Hg3 mi
2:50 AM50 °FCool.6 mph100%29.95 "Hg4 mi
2:20 AM50 °FCool.7 mph100%29.95 "Hg6 mi
1:50 AM50 °FCool.7 mph94%29.98 "HgN/A
1:20 AM50 °FCool.7 mph94%29.98 "HgN/A
12:50 AM50 °FCool.7 mph94%29.98 "HgN/A
12:20 AM50 °FCool.7 mph100%29.98 "Hg6 mi
11:50 PM
Wed, Sep 2
50 °FCool.6 mph94%29.98 "HgN/A
10:20 PM52 °FCool.7 mph94%30.01 "HgN/A
9:50 PM52 °FPassing clouds.7 mph94%30.01 "HgN/A
8:50 PM52 °FThundershowers. Passing clouds.9 mph94%30.01 "Hg6 mi
8:20 PM54 °FSprinkles. Scattered clouds.12 mph82%30.01 "Hg4 mi
7:50 PM55 °FScattered showers. Scattered clouds.5 mph82%30.01 "HgN/A
7:20 PM55 °FScattered clouds.3 mph82%30.01 "HgN/A
6:50 PM57 °FPassing clouds.2 mph77%30.01 "HgN/A
6:20 PM59 °FPassing clouds.3 mph72%30.01 "HgN/A
5:50 PM59 °FPassing clouds.5 mph72%30.01 "HgN/A
5:20 PM61 °FScattered clouds.1 mph63%30.01 "HgN/A
4:50 PM61 °FScattered clouds.2 mph63%30.01 "HgN/A
4:20 PM59 °FScattered clouds.5 mph68%30.01 "HgN/A
3:50 PM59 °FScattered showers. Scattered clouds.6 mph68%30.01 "HgN/A
3:20 PM61 °FScattered showers. Scattered clouds.6 mph63%30.01 "HgN/A
2:50 PM61 °FScattered showers. Scattered clouds.7 mph63%30.01 "HgN/A
2:20 PM59 °FScattered clouds.7 mph68%30.01 "HgN/A
1:50 PM61 °FScattered clouds.6 mph63%30.01 "HgN/A
1:20 PM59 °FScattered clouds.6 mph68%30.04 "HgN/A
12:50 PM61 °FScattered clouds.5 mph72%30.04 "HgN/A
12:20 PM59 °FScattered clouds.3 mph82%30.04 "HgN/A
11:50 AM57 °FLight rain. Scattered clouds.3 mph88%30.04 "HgN/A
11:20 AM55 °FLight rain. Scattered clouds.5 mph94%30.04 "HgN/A
10:50 AM55 °FBroken clouds.7 mph82%30.04 "HgN/A
10:20 AM59 °FScattered clouds.7 mph72%30.04 "HgN/A
9:50 AM59 °FScattered clouds.6 mph77%30.04 "HgN/A
9:20 AM57 °FPassing clouds.6 mph88%30.04 "HgN/A
8:50 AM55 °FPassing clouds.7 mph88%30.04 "HgN/A
8:20 AM54 °FPassing clouds.7 mph94%30.01 "HgN/A
7:50 AM52 °FPassing clouds.7 mph94%30.01 "Hg6 mi
7:20 AM50 °FPassing clouds.6 mph100%30.01 "Hg6 mi
6:50 AM48 °FPassing clouds.6 mph100%30.01 "Hg6 mi
6:20 AM48 °FPassing clouds.5 mph100%30.01 "Hg6 mi
Weather by CustomWeather, © 2015

See weather overviewHow to use our weather pages